Regional Weather Roundup
Issued by NWS Green Bay, WI

Home | Current Version | Previous Version | Graphics & Text | Print | Product List | Glossary Off
Versions: 1 2 3 4 5 6 7 8 9 10 11 12 13 14 15 16 17 18 19 20 21 22 23 24 25 26 27 28 29 30 31 32 33 34 35 36 37 38 39 40 41 42 43 44 45 46 47 48 49 50

000
ASUS43 KGRB 182000
RWRGRB

NORTH-CENTRAL AND NORTHEAST WISCONSIN REGIONAL WEATHER ROUNDUP
NATIONAL WEATHER SERVICE GREEN BAY WI
300 PM CDT FRI AUG 18 2017

WIZ005-009-010>012-018-019-182100-
NORTH CENTRAL WISCONSIN

CITY           SKY/WX    TMP DP  RH WIND       PRES   REMARKS
IRONWOOD       MOSUNNY   68  53  58 NW10      29.86S
MANITOWISH WTR NOT AVBL
ARBOR VITAE    NOT AVBL
EAGLE RIVER    NOT AVBL
LAND O LAKES   NOT AVBL
RHINELANDER    CLOUDY    69  56  62 NW7       29.85S
PHILLIPS       NOT AVBL
ANTIGO         NOT AVBL
TOMAHAWK       NOT AVBL
MERRILL        NOT AVBL
$$

WIZ013-073-182100-
NORTHEAST WISCONSIN

CITY           SKY/WX    TMP DP  RH WIND       PRES   REMARKS
IRON MOUNTAIN  CLOUDY    68  54  60 N14       29.79S
MARINETTE      CLOUDY    70  58  65 VRB7      29.79R
$$

WIZ017-030-035>037-045-182100-
CENTRAL WISCONSIN

CITY           SKY/WX    TMP DP  RH WIND       PRES   REMARKS
MEDFORD        NOT AVBL
WAUSAU         CLOUDY    68  59  73 W8        29.83F
MOSINEE        CLOUDY    68  59  73 W10       29.87S
MARSHFIELD     CLOUDY    69  59  70 W12       29.86S
WISC RAPIDS    CLOUDY    71  60  68 W12       29.87S
STEVENS POINT  NOT AVBL
WAUPACA        NOT AVBL
SHAWANO        NOT AVBL
CLINTONVILLE   NOT AVBL
WAUTOMA        MOSUNNY   74  59  59 NW13G18   29.85S
$$

WIZ038-039-048-051-182100-
FOX VALLEY

CITY           SKY/WX    TMP DP  RH WIND       PRES   REMARKS
NWS GREEN BAY  CLOUDY    70  63  78 W12       29.81S
APPLETON       PTSUNNY   70  55  60 W15       29.82F
OSHKOSH        CLOUDY    72  60  66 NW8       29.83F
FOND DU LAC    PTSUNNY   73  59  61 NW8       29.83F
$$

WIZ022-050-052-182100-
EAST CENTRAL WISCONSIN

CITY           SKY/WX    TMP DP  RH WIND       PRES   REMARKS
EPHRAIM        NOT AVBL
WASHINGTON ISL NOT AVBL
STURGEON BAY   CLOUDY    70  60  70 W10       29.81R
MANITOWOC      NOT AVBL
SHEBOYGAN      CLOUDY    72  62  71 NW10G17   29.83S
$$

LMZ563-521-522-541>543-182100-
LAKESHORE

STATION/POSITION TIME  TEMP    WIND        PRES    VSBY  WAVE
                       AIR SEA DIR/SP/G                  HT/PER
                 (UTC) (F)     (DEG/KT/KT) (MB)    (MI)  (FT/S)
SHEBOYGAN LKSHOR 1900   69     270/ 13/ 17 1009.5R
KEWAUNEE LKSHORE 1930   72     310/  7/ 13 1008.3S
NORTHPORT PIER   1940   67     320/  5/  9 1008.1R
N MID LAKE BUOY  1850   65 67  290/ 17/ 21 1007.3F         4/ 4
S GREEN BAY BUOY 1930   70 71  300/  6/  8 1008.8R
SISTER BAY LKSHO 1918   73     340/  9/ 10   N/A
MENOMINEE LKSHOR 1930   71     290/  6/ 10 1008.4R
$$




USA.gov is the U.S. government's official web portal to all federal, state and local government web resources and services.